Regional Weather Roundup
Issued by NWS

Home | Current Version | Previous Version | Graphics & Text | Print | Product List | Glossary On
Versions: 1 2 3 4 5 6 7 8 9 10 11 12 13 14 15 16 17 18 19 20 21 22 23 24 25 26 27 28 29 30 31 32 33 34 35 36 37 38 39 40 41 42 43 44 45 46 47 48 49 50
000
ASUS43 KLMK 190610
RWRKY
KENTUCKY REGIONAL WEATHER ROUNDUP
NATIONAL WEATHER SERVICE LOUISVILLE KY
200 AM EDT FRI SEP 19 2014

NOTE "FAIR" INDICATES FEW OR NO CLOUDS BELOW 12,000 FEET
WITH NO SIGNIFICANT WEATHER AND/OR OBSTRUCTIONS TO VISIBILITY.

KYZ001>023-026-027-061>063-070>075-190700-
WESTERN AND SOUTH CENTRAL KENTUCKY

CITY           SKY/WX    TMP DP  RH WIND       PRES   REMARKS
PADUCAH        CLEAR     62  54  74 CALM      30.05S
HENDERSON      CLEAR     55  52  88 CALM      30.07F
OWENSBORO      CLEAR     62  54  75 NE7       30.08S
HOPKINSVILLE   CLEAR     57  56  96 NE6       30.05S
BOWLING GREEN  CLEAR     58  53  84 CALM      30.06S
GLASGOW        CLEAR     57  52  83 CALM      30.07F
$$

KYZ024-025-028>034-038-045-046-053-190700-
NORTH CENTRAL KENTUCKY

CITY           SKY/WX    TMP DP  RH WIND       PRES   REMARKS
LOUISVILLE/SDF CLEAR     61  50  67 E5        30.10S
LOUISVILLE/LOU CLEAR     61  49  64 NE6       30.11S
FORT KNOX      CLEAR     59  52  77 NE6       30.09S
$$

KYZ035>037-039>044-047>052-055>060-089>105-190700-
NORTHEAST KENTUCKY

CITY           SKY/WX    TMP DP  RH WIND       PRES   REMARKS
LEXINGTON      CLEAR     60  48  64 E9        30.12S
COVINGTON      CLEAR     58  46  64 E5        30.15R
FRANKFORT      CLEAR     57  50  77 NE3       30.12R
$$

KYZ054-064>069-076>088-106>120-190700-
SOUTHEAST KENTUCKY

CITY           SKY/WX    TMP DP  RH WIND       PRES   REMARKS
JACKSON        CLEAR     58  50  75 CALM      30.11S
LONDON         CLEAR     59  53  80 CALM      30.10S
SOMERSET       NOT AVBL
MIDDLESBORO    PTCLDY    55  54  99 CALM      30.10S
MONTICELLO     CLEAR     56  55  96 CALM      30.10F
$$




USA.gov is the U.S. government's official web portal to all federal, state and local government web resources and services.